Location: Peach Mountain Observatory
(42.3967°N, 83.9367°W)
Time: 17:45:24
(UTC-05:00)

Transit 4A - Pass Details

Date: 26 January 2020
Orbit: 872 x 973 km, 66.8° (Epoch: 26 February)

Event Time Altitude Azimuth Distance (km) Brightness Sun altitude
Rises 06:20:29 0° 195° (SSW) 3,555 10.9 -17.5°
Reaches altitude 10° 06:23:03 10° 192° (SSW) 2,600 10.2 -17.1°
Maximum altitude 06:28:56 57° 115° (ESE) 1,054 8.5 -16.0°
Drops below altitude 10° 06:34:42 10° 38° (NE) 2,554 10.5 -15.0°
Sets 06:37:12 0° 35° (NE) 3,487 11.2 -14.5°
